Japanese version Home page |
Updated on March 17, 2010 |
|
Orbital ElementsEpoch = 2009 Mar. 30.0 TT T = 2009 Apr. 15.9744 TT Peri. = 149.7295 e = 0.688978 Node = 66.4497 2000.0 q = 0.913706 AU Incl. = 19.1479 a = 2.937753 AU n = 0.1957407 P = 5.04 years
|
Finding Charts
|
Magnitudes Graphm1 = 18.0 + 5 log d + 2.0 log r
|
The orbital elements are printed on IAUC 9002.
|